Weather History for KFBL - April, 2014

Change the Weather History Date:

Wednesday, April 30, 2014

  Actual Average Record
Temperature  
Mean Temperature 42 °F -  
Max Temperature 46 °F 64 °F 90 °F (1952)
Min Temperature 37 °F 40 °F 17 °F (1956)
Degree Days  
Heating Degree Days 24    
Moisture  
Dew Point 36 °F    
Average Humidity 80    
Maximum Humidity 87    
Minimum Humidity 71    
Precipitation  
Precipitation 0.00 in - - ()
Sea Level Pressure  
Sea Level Pressure 29.74 in    
Wind  
Wind Speed 10 mph (NNW)    
Max Wind Speed 16 mph    
Max Gust Speed 22 mph    
Visibility 8 miles    
Events Rain , Snow    
Averages and records for this station are not official NWS values.
T = Trace of Precipitation, MM = Missing Value Source: NWS Daily Summary

Daily Weather History Graph

Daily Weather History Graph

Search for Another Location

Airport or City:

Trip Planner

Search our weather history database for the weather conditions in past years. The results will help you decide how hot, cold, wet, or windy it might be!

Date:

Astronomy

Apr. 30, 2014 Rise Set
Actual Time 6:05 AM CDT 8:16 PM CDT
Civil Twilight 5:33 AM CDT 8:48 PM CDT
Nautical Twilight 4:54 AM CDT 9:27 PM CDT
Astronomical Twilight 4:11 AM CDT 10:11 PM CDT
Moon 7:05 AM CDT (4/30) 9:57 PM CDT (4/30)
Length of Visible Light 15h 14m
Length of Day
14h 10m
New Moon, 2% of the Moon is Illuminated
Apr 30
New Moon
May 6
First Quarter
May 14
Full
May 21
Last Quarter
May 28
New

Hourly Weather History & Observations

Time (CDT) Temp. Windchill Dew Point Humidity Pressure Visibility Wind Dir Wind Speed Gust Speed Precip Events Conditions
12:14 AM 37.4 °F 30.3 °F 32.0 °F 81% 29.73 in 10.0 mi North 10.4 mph - N/A   Light Drizzle
12:34 AM 37.4 °F 30.3 °F 32.0 °F 81% 29.73 in 10.0 mi NNW 10.4 mph 17.3 mph N/A Snow Light Snow
12:53 AM 37.4 °F 30.8 °F 32.0 °F 81% 29.73 in 10.0 mi NNW 9.2 mph - N/A   Light Drizzle
1:14 AM 37.4 °F 30.8 °F 32.0 °F 81% 29.73 in 7.0 mi NNW 9.2 mph - N/A   Overcast
1:34 AM 37.4 °F 30.3 °F 32.0 °F 81% 29.72 in 5.0 mi NNW 10.4 mph - N/A   Light Drizzle
1:53 AM 37.4 °F 30.8 °F 32.0 °F 81% 29.72 in 7.0 mi NNW 9.2 mph - N/A   Overcast
2:14 AM 37.4 °F 29.8 °F 33.8 °F 87% 29.72 in 10.0 mi NNW 11.5 mph - N/A   Overcast
2:34 AM 37.4 °F 30.3 °F 33.8 °F 87% 29.72 in 5.0 mi NNW 10.4 mph - N/A Rain Light Rain
2:53 AM 37.4 °F 31.4 °F 33.8 °F 87% 29.72 in 7.0 mi NNW 8.1 mph - N/A Rain Light Rain
3:14 AM 37.4 °F 32.1 °F 33.8 °F 87% 29.72 in 10.0 mi NNW 6.9 mph - N/A   Light Drizzle
3:34 AM 37.4 °F 30.8 °F 33.8 °F 87% 29.72 in 7.0 mi NNW 9.2 mph - N/A Rain Rain
3:53 AM 37.4 °F 32.1 °F 33.8 °F 87% 29.72 in 4.0 mi NNW 6.9 mph - N/A Rain Rain
4:14 AM 37.4 °F 30.3 °F 33.8 °F 87% 29.72 in 4.0 mi NNW 10.4 mph - N/A Rain Light Rain
4:34 AM 37.4 °F 30.8 °F 33.8 °F 87% 29.72 in 3.0 mi NNW 9.2 mph - N/A Rain Light Rain
4:54 AM 37.4 °F 30.3 °F 33.8 °F 87% 29.72 in 4.0 mi NNW 10.4 mph - N/A   Drizzle
5:14 AM 37.4 °F 32.1 °F 33.8 °F 87% 29.72 in 3.0 mi NNW 6.9 mph - N/A   Drizzle
5:34 AM 37.4 °F 30.8 °F 33.8 °F 87% 29.72 in 2.5 mi NNW 9.2 mph - N/A Rain Light Rain
6:14 AM 39.2 °F 33.0 °F 33.8 °F 81% 29.73 in 3.0 mi NNW 9.2 mph - N/A   Haze
6:34 AM 39.2 °F 32.5 °F 33.8 °F 81% 29.72 in 4.0 mi NNW 10.4 mph - N/A   Haze
6:54 AM 39.2 °F 32.5 °F 33.8 °F 81% 29.72 in 5.0 mi NNW 10.4 mph - N/A   Haze
7:14 AM 39.2 °F 31.6 °F 33.8 °F 81% 29.72 in 10.0 mi NNW 12.7 mph - N/A   Overcast
7:34 AM 39.2 °F 32.5 °F 33.8 °F 81% 29.72 in 5.0 mi NNW 10.4 mph - N/A   Haze
7:54 AM 39.2 °F 33.0 °F 33.8 °F 81% 29.73 in 7.0 mi NNW 9.2 mph - N/A   Overcast
8:14 AM 39.2 °F 33.0 °F 35.6 °F 87% 29.73 in 5.0 mi NNW 9.2 mph - N/A   Light Drizzle
8:34 AM 39.2 °F - 35.6 °F 87% 29.73 in - Calm Calm - N/A   Drizzle
8:54 AM 39.2 °F 32.5 °F 35.6 °F 87% 29.73 in 2.5 mi NNW 10.4 mph - N/A   Light Drizzle
9:14 AM 39.2 °F 32.0 °F 35.6 °F 87% 29.73 in 3.0 mi NNW 11.5 mph - N/A   Light Drizzle
9:34 AM 39.2 °F 32.0 °F 35.6 °F 87% 29.73 in 3.0 mi NNW 11.5 mph - N/A   Haze
10:14 AM 39.2 °F 31.6 °F 35.6 °F 87% 29.73 in 10.0 mi NNW 12.7 mph 20.7 mph N/A   Overcast
10:33 AM 41.0 °F 32.8 °F 35.6 °F 81% 29.73 in 10.0 mi NNW 16.1 mph 21.9 mph N/A   Overcast
10:54 AM 41.0 °F 33.9 °F 35.6 °F 81% 29.73 in 10.0 mi NNW 12.7 mph 17.3 mph N/A   Overcast
11:14 AM 41.0 °F 33.1 °F 35.6 °F 81% 29.74 in 10.0 mi NNW 15.0 mph 18.4 mph N/A   Overcast
11:34 AM 41.0 °F 33.5 °F 37.4 °F 87% 29.75 in 10.0 mi North 13.8 mph 18.4 mph N/A   Overcast
11:54 AM 41.0 °F 33.9 °F 37.4 °F 87% 29.75 in 10.0 mi North 12.7 mph 17.3 mph N/A   Overcast
12:14 PM 42.8 °F 37.0 °F 37.4 °F 81% 29.74 in 10.0 mi NNW 10.4 mph 16.1 mph N/A   Overcast
12:34 PM 42.8 °F 37.5 °F 37.4 °F 81% 29.74 in 10.0 mi NNW 9.2 mph - N/A   Overcast
12:54 PM 42.8 °F 37.0 °F 37.4 °F 81% 29.74 in 10.0 mi NNW 10.4 mph - N/A   Drizzle
1:13 PM 42.8 °F 36.2 °F 37.4 °F 81% 29.74 in 10.0 mi NNW 12.7 mph 17.3 mph N/A   Overcast
1:34 PM 42.8 °F 36.6 °F 37.4 °F 81% 29.74 in 10.0 mi NNW 11.5 mph 17.3 mph N/A   Overcast
1:54 PM 44.6 °F 38.1 °F 37.4 °F 76% 29.74 in 10.0 mi North 13.8 mph 18.4 mph N/A   Overcast
2:13 PM 42.8 °F 36.2 °F 37.4 °F 81% 29.74 in 10.0 mi NW 12.7 mph 19.6 mph N/A   Overcast
2:34 PM 44.6 °F 38.1 °F 37.4 °F 76% 29.75 in 10.0 mi NNW 13.8 mph 20.7 mph N/A   Overcast
2:54 PM 44.6 °F 40.2 °F 37.4 °F 76% 29.75 in 10.0 mi NNW 8.1 mph - N/A   Overcast
3:13 PM 44.6 °F 38.8 °F 37.4 °F 76% 29.75 in 10.0 mi NNW 11.5 mph - N/A   Overcast
3:34 PM 46.4 °F 41.5 °F 37.4 °F 71% 29.74 in 10.0 mi NNW 10.4 mph - N/A   Overcast
3:54 PM 46.4 °F 41.9 °F 37.4 °F 71% 29.74 in 10.0 mi NW 9.2 mph - N/A   Overcast
4:14 PM 46.4 °F 41.1 °F 37.4 °F 71% 29.74 in 10.0 mi NNW 11.5 mph - N/A   Overcast
4:34 PM 46.4 °F 40.7 °F 37.4 °F 71% 29.74 in 10.0 mi NNW 12.7 mph 17.3 mph N/A   Overcast
4:54 PM 44.6 °F 39.7 °F 37.4 °F 76% 29.75 in 5.0 mi NNW 9.2 mph - N/A   Drizzle
5:14 PM 46.4 °F 41.1 °F 37.4 °F 71% 29.74 in 10.0 mi NNW 11.5 mph - N/A   Overcast
5:34 PM 44.6 °F 39.7 °F 37.4 °F 76% 29.75 in 5.0 mi NNW 9.2 mph 15.0 mph N/A   Haze
5:53 PM 46.4 °F 42.9 °F 37.4 °F 71% 29.75 in 10.0 mi NNW 6.9 mph - N/A   Overcast
6:14 PM 46.4 °F 42.9 °F 37.4 °F 71% 29.75 in 10.0 mi NNW 6.9 mph - N/A   Overcast
6:34 PM 46.4 °F 44.3 °F 37.4 °F 71% 29.75 in 10.0 mi NNW 4.6 mph - N/A   Light Drizzle
6:53 PM 44.6 °F 40.2 °F 37.4 °F 76% 29.75 in 7.0 mi NW 8.1 mph - N/A   Drizzle
7:14 PM 44.6 °F 39.7 °F 37.4 °F 76% 29.75 in 7.0 mi NNW 9.2 mph - N/A Rain Rain
7:34 PM 44.6 °F 40.7 °F 37.4 °F 76% 29.75 in 5.0 mi NNW 6.9 mph - N/A Rain Light Rain
8:14 PM 44.6 °F 42.2 °F 37.4 °F 76% 29.75 in 10.0 mi NW 4.6 mph - N/A   Light Drizzle
8:33 PM 44.6 °F 39.7 °F 37.4 °F 76% 29.75 in 7.0 mi NNW 9.2 mph - N/A   Drizzle
8:54 PM 44.6 °F 39.2 °F 37.4 °F 76% 29.75 in 10.0 mi NW 10.4 mph - N/A   Light Drizzle
9:14 PM 44.6 °F 40.2 °F 35.6 °F 71% 29.75 in 10.0 mi NNW 8.1 mph 17.3 mph N/A   Light Drizzle
9:33 PM 44.6 °F 40.2 °F 35.6 °F 71% 29.75 in 10.0 mi NW 8.1 mph - N/A   Overcast
9:54 PM 44.6 °F 40.7 °F 35.6 °F 71% 29.75 in 10.0 mi NW 6.9 mph - N/A   Overcast
10:14 PM 44.6 °F 40.2 °F 35.6 °F 71% 29.75 in 10.0 mi NW 8.1 mph - N/A   Overcast
10:34 PM 44.6 °F 39.7 °F 35.6 °F 71% 29.75 in 10.0 mi NW 9.2 mph - N/A   Overcast
10:54 PM 44.6 °F 40.2 °F 35.6 °F 71% 29.75 in 10.0 mi NW 8.1 mph - N/A   Overcast
11:14 PM 42.8 °F 38.0 °F 37.4 °F 81% 29.74 in 7.0 mi NW 8.1 mph - N/A   Overcast
11:34 PM 42.8 °F 38.6 °F 37.4 °F 81% 29.74 in 4.0 mi NW 6.9 mph - N/A   Haze
11:54 PM 42.8 °F 37.0 °F 37.4 °F 81% 29.74 in 7.0 mi NW 10.4 mph - N/A   Overcast